When you browse on this site, cookies collect data to enhance your experience and personalize the content and advertising you see.
Visit our Privacy Policy to learn more. By continuing to use the site, you agree to this use of cookies and data.
  • In Hungary
  • List of Countries
  • For 7 days
  • Water Temperature
  • Weather Map
  • News
  • Weather Widgets
  • user-avatar
    Login

    Hourly Weather Zalew

    Today, 15 December, Sunday

    Time Temperature Precipitation Wind Pressure Humidity
    00:00 +2°C° 0 mm 6 mps 734 mmHg 79%
    01:00 +2°C° 0 mm 6 mps 734 mmHg 77%
    02:00 +2°C° 0.2 mm 6 mps 735 mmHg 78%
    03:00 +2°C° 0.2 mm 7 mps 735 mmHg 78%
    04:00 +1°C° 0.2 mm 8 mps 736 mmHg 79%
    05:00 +2°C° 0 mm 7 mps 736 mmHg 79%
    06:00 +1°C° 0 mm 6 mps 737 mmHg 79%
    07:00 +1°C° 0 mm 5 mps 737 mmHg 78%
    08:00 +1°C° 0 mm 5 mps 737 mmHg 75%
    09:00 +2°C° 0 mm 5 mps 738 mmHg 71%
    10:00 +2°C° 0 mm 6 mps 738 mmHg 68%
    11:00 +3°C° 0.1 mm 6 mps 737 mmHg 71%
    12:00 +3°C° 0.1 mm 7 mps 737 mmHg 74%
    13:00 +4°C° 0.1 mm 7 mps 736 mmHg 78%
    14:00 +5°C° 0.2 mm 8 mps 736 mmHg 77%
    15:00 +6°C° 0.2 mm 8 mps 736 mmHg 76%
    16:00 +7°C° 0.2 mm 9 mps 736 mmHg 75%
    17:00 +6°C° 0.3 mm 7 mps 737 mmHg 79%
    18:00 +7°C° 0.3 mm 6 mps 738 mmHg 84%
    19:00 +6°C° 0.3 mm 5 mps 739 mmHg 88%
    20:00 +6°C° 0 mm 5 mps 739 mmHg 86%
    21:00 +6°C° 0 mm 5 mps 740 mmHg 83%
    22:00 +6°C° 0 mm 5 mps 741 mmHg 80%
    23:00 +6°C° 0 mm 5 mps 741 mmHg 81%

    Tomorrow, 16 December, Monday

    Time Temperature Precipitation Wind Pressure Humidity
    00:00 +5°C° 0 mm 5 mps 742 mmHg 81%
    01:00 +5°C° 0 mm 4 mps 742 mmHg 82%
    02:00 +5°C° 0 mm 4 mps 743 mmHg 83%
    03:00 +5°C° 0 mm 4 mps 743 mmHg 84%
    04:00 +4°C° 0 mm 4 mps 744 mmHg 85%
    05:00 +4°C° 0 mm 3 mps 744 mmHg 86%
    06:00 +4°C° 0 mm 3 mps 744 mmHg 88%
    07:00 +4°C° 0 mm 2 mps 744 mmHg 90%
    08:00 +5°C° 0 mm 2 mps 745 mmHg 88%
    09:00 +5°C° 0 mm 2 mps 745 mmHg 87%
    10:00 +5°C° 0 mm 2 mps 745 mmHg 86%
    11:00 +6°C° 0 mm 2 mps 745 mmHg 83%
    12:00 +7°C° 0 mm 2 mps 745 mmHg 79%
    13:00 +7°C° 0 mm 2 mps 744 mmHg 76%
    14:00 +7°C° 0 mm 3 mps 744 mmHg 78%
    15:00 +7°C° 0 mm 3 mps 744 mmHg 79%
    16:00 +5°C° 0 mm 3 mps 744 mmHg 80%
    17:00 +5°C° 0 mm 4 mps 744 mmHg 80%
    18:00 +5°C° 0 mm 4 mps 744 mmHg 80%
    19:00 +5°C° 0 mm 4 mps 744 mmHg 80%
    20:00 +5°C° 0 mm 4 mps 744 mmHg 81%
    21:00 +5°C° 0 mm 4 mps 743 mmHg 81%
    22:00 +5°C° 0 mm 4 mps 743 mmHg 82%
    23:00 +5°C° 0 mm 4 mps 743 mmHg 84%

    Day after tomorrow, 17 December, Tuesday

    Time Temperature Precipitation Wind Pressure Humidity
    00:00 +5°C° 0 mm 4 mps 743 mmHg 86%
    01:00 +5°C° 0 mm 4 mps 743 mmHg 88%
    02:00 +5°C° 0 mm 4 mps 742 mmHg 88%
    03:00 +5°C° 0 mm 4 mps 742 mmHg 88%
    04:00 +5°C° 0 mm 4 mps 742 mmHg 87%
    05:00 +5°C° 0 mm 4 mps 742 mmHg 88%
    06:00 +5°C° 0 mm 4 mps 742 mmHg 89%
    07:00 +5°C° 0 mm 4 mps 742 mmHg 89%
    08:00 +5°C° 0 mm 4 mps 742 mmHg 88%
    09:00 +6°C° 0 mm 4 mps 742 mmHg 87%
    10:00 +6°C° 0 mm 4 mps 743 mmHg 85%
    11:00 +7°C° 0 mm 4 mps 742 mmHg 82%
    12:00 +8°C° 0 mm 3 mps 742 mmHg 79%
    13:00 +9°C° 0 mm 3 mps 742 mmHg 76%
    14:00 +8°C° 0 mm 3 mps 742 mmHg 78%
    15:00 +7°C° 0 mm 4 mps 742 mmHg 79%
    16:00 +7°C° 0 mm 4 mps 742 mmHg 81%
    17:00 +7°C° 0 mm 4 mps 742 mmHg 82%
    18:00 +7°C° 0 mm 3 mps 742 mmHg 83%
    19:00 +7°C° 0 mm 3 mps 742 mmHg 84%
    20:00 +7°C° 0 mm 3 mps 742 mmHg 85%
    21:00 +7°C° 0 mm 3 mps 742 mmHg 87%
    22:00 +5°C° 0 mm 3 mps 742 mmHg 89%
    23:00 +5°C° 0 mm 3 mps 742 mmHg 90%

    18 December, Wednesday

    Time Temperature Precipitation Wind Pressure Humidity
    00:00 +5°C° 0 mm 3 mps 742 mmHg 92%
    01:00 +5°C° 0 mm 3 mps 743 mmHg 93%
    02:00 +4°C° 0 mm 3 mps 743 mmHg 93%
    03:00 +4°C° 0 mm 3 mps 743 mmHg 93%
    04:00 +4°C° 0 mm 3 mps 743 mmHg 94%
    05:00 +4°C° 0 mm 3 mps 743 mmHg 93%
    06:00 +3°C° 0 mm 3 mps 743 mmHg 92%
    07:00 +3°C° 0 mm 3 mps 743 mmHg 91%
    08:00 +4°C° 0 mm 3 mps 743 mmHg 89%
    09:00 +5°C° 0 mm 3 mps 744 mmHg 87%
    10:00 +5°C° 0 mm 3 mps 744 mmHg 85%
    11:00 +7°C° 0 mm 3 mps 744 mmHg 82%
    12:00 +8°C° 0 mm 3 mps 744 mmHg 79%
    13:00 +9°C° 0 mm 3 mps 744 mmHg 76%
    14:00 +9°C° 0 mm 3 mps 744 mmHg 80%
    15:00 +8°C° 0 mm 3 mps 744 mmHg 83%
    16:00 +7°C° 0 mm 3 mps 744 mmHg 87%
    17:00 +7°C° 0 mm 3 mps 744 mmHg 88%
    18:00 +7°C° 0 mm 3 mps 744 mmHg 89%
    19:00 +5°C° 0 mm 3 mps 744 mmHg 90%
    20:00 +5°C° 0 mm 3 mps 745 mmHg 90%
    21:00 +6°C° 0 mm 2 mps 745 mmHg 90%
    22:00 +6°C° 0 mm 2 mps 745 mmHg 89%
    23:00 +6°C° 0 mm 1 mps 745 mmHg 89%

    19 December, Thursday

    Time Temperature Precipitation Wind Pressure Humidity
    00:00 +6°C° 0 mm 1 mps 744 mmHg 89%
    01:00 +5°C° 0 mm 0 mps 744 mmHg 89%
    02:00 +6°C° 0 mm 1 mps 744 mmHg 89%
    03:00 +6°C° 0 mm 1 mps 744 mmHg 89%
    04:00 +7°C° 0 mm 1 mps 744 mmHg 90%
    05:00 +7°C° 0 mm 1 mps 744 mmHg 90%
    06:00 +7°C° 0 mm 1 mps 744 mmHg 90%
    07:00 +6°C° 0 mm 2 mps 744 mmHg 91%
    08:00 +6°C° 0 mm 2 mps 744 mmHg 90%
    09:00 +8°C° 0 mm 1 mps 744 mmHg 89%
    10:00 +8°C° 0 mm 1 mps 744 mmHg 89%
    11:00 +7°C° 0 mm 2 mps 743 mmHg 87%
    12:00 +8°C° 0 mm 2 mps 743 mmHg 85%
    13:00 +8°C° 0 mm 2 mps 743 mmHg 83%
    14:00 +8°C° 0 mm 2 mps 743 mmHg 85%
    15:00 +7°C° 0 mm 2 mps 743 mmHg 86%
    16:00 +7°C° 0 mm 2 mps 742 mmHg 87%
    17:00 +7°C° 0 mm 2 mps 742 mmHg 87%
    18:00 +7°C° 0 mm 3 mps 742 mmHg 87%
    19:00 +7°C° 0 mm 3 mps 742 mmHg 86%
    20:00 +7°C° 0.1 mm 3 mps 742 mmHg 87%
    21:00 +6°C° 0.1 mm 4 mps 742 mmHg 87%
    22:00 +6°C° 0.1 mm 4 mps 742 mmHg 88%
    23:00 +6°C° 0.3 mm 4 mps 741 mmHg 88%

    20 December, Friday

    Time Temperature Precipitation Wind Pressure Humidity
    00:00 +6°C° 0.3 mm 4 mps 741 mmHg 89%
    01:00 +6°C° 0.3 mm 4 mps 740 mmHg 89%
    02:00 +6°C° 0.3 mm 4 mps 740 mmHg 89%
    03:00 +6°C° 0.3 mm 4 mps 740 mmHg 88%
    04:00 +6°C° 0.3 mm 4 mps 739 mmHg 88%
    05:00 +5°C° 0.1 mm 4 mps 739 mmHg 88%
    06:00 +5°C° 0.1 mm 3 mps 739 mmHg 88%
    07:00 +5°C° 0.1 mm 3 mps 738 mmHg 88%
    08:00 +5°C° 0 mm 3 mps 738 mmHg 86%
    09:00 +5°C° 0 mm 4 mps 738 mmHg 84%
    10:00 +6°C° 0 mm 4 mps 738 mmHg 82%
    11:00 +6°C° 0 mm 4 mps 738 mmHg 80%
    12:00 +7°C° 0 mm 4 mps 737 mmHg 78%
    13:00 +7°C° 0 mm 4 mps 737 mmHg 75%
    14:00 +7°C° 0 mm 4 mps 737 mmHg 76%
    15:00 +6°C° 0 mm 4 mps 737 mmHg 77%
    16:00 +6°C° 0 mm 4 mps 736 mmHg 78%
    17:00 +6°C° 0 mm 4 mps 736 mmHg 80%
    18:00 +5°C° 0 mm 5 mps 736 mmHg 81%
    19:00 +5°C° 0 mm 5 mps 735 mmHg 83%
    20:00 +5°C° 0 mm 5 mps 735 mmHg 85%
    21:00 +4°C° 0 mm 6 mps 735 mmHg 87%
    22:00 +4°C° 0 mm 6 mps 735 mmHg 89%
    23:00 +4°C° 0 mm 6 mps 734 mmHg 88%
    Show more